CMS-02 (GSAT 24)

Last updated on Thu Jul 03 2025 00:02:49 GMT+0000 (Coordinated Universal Time)

1 52903U 22067A 25183.58308803 -.00000158 00000+0 00000+0 0 9993 2 52903 0.0390 265.2096 0001027 46.1789 262.4446 1.00271621 11109
UTC large
Height (km)
Speed (km/s)
/
Latitude / Longitude
Inclination (degrees)
Orbital Period (minutes)
Azimuth
Elevation
Range (km)
Doppler Factor

Next 0 passes for location: London (51.5072 / 0.1276)

Sorry there are no passes over London.